Re: [閒聊] 建議聯盟幣全部歐印電競燒蛋

看板 lol
作者 vanillaoasis
時間 2022年11月27日
留言 276則留言,273人參與討論
推噓 267  ( 269推 2噓 5→ )

還是有一位沒有領序號 這邊再抽出一位 https://i.imgur.com/MqoUPtA.jpg
恭喜以下1位鄉民獲得大獎! dragon8844 請寄站內信來領取吧! 謝謝大家 ※ 引述《vanillaoasis (vanilla)》之銘言: : 前一陣子太忙了 : 沒有空抽獎 : 燒蛋快結束了 : 剩下兩個序號 : 抽出了兩位 : 請寄站內信來領取吧! : 恭喜以下2位鄉民獲得大獎! : skyline9981 : q251425(已送) : https://i.imgur.com/rLCZtE0.jpg
: 謝謝大家 : 祝大家轉服順利 : 都不會被盜帳號 : ※ 引述《vanillaoasis (vanilla)》之銘言: : : 感謝各位大大的建議 : : 最後決定將聯盟幣花在燒蛋上了 : : 希望大家都能開心轉服 : : 然後以下是抽獎結果 : : https://i.imgur.com/7Xh5Cqa.jpg
: : 請得獎者站內信給我確認 : : 我再回傳序號 : : 謝謝大家 : : Ps這邊再尋找一次給意見但未領序號的大大們 : : 如果還是沒站內信我的話 : : 11/15 23:59之後會將剩餘序號再抽獎給其他人 : : 狂 --
※ 發信站: 批踢踢實業坊(ptt.cc), 來自: 42.77.95.81 (臺灣) ※ 文章網址: https://www.ptt.cc/bbs/LoL/M.1669483374.A.53E.html
1Fkey88123: 778811/27 01:26
2Fkey88123: 按錯 777777711/27 01:26
3Ftobbykuo4266: 一直推 一直爽11/27 01:32
4Fdichenfong: 不如抽我 我一定領11/27 01:37
5Fken12202408: 抽11/27 01:37
6Fa7365446: 抽11/27 01:40
再沒人領 我從這篇抽一個出來 ※ 編輯: vanillaoasis (42.77.95.81 臺灣), 11/27/2022 01:41:24
7FKLoVeRs: 抽11/27 01:42
8Fsal60614: 好11/27 01:42
9Fgivemegem: 抽11/27 01:42
10Fdavid0426: 好 抽11/27 01:43
11Fjustfortest: 抽11/27 01:43
12Fwarchero: 抽我11/27 01:43
13Fb1184014: 抽11/27 01:44
14Fchchunieh: 抽11/27 01:44
15Fj900802f: 抽抽11/27 01:44
16Fkm850105: 抽11/27 01:45
17Funesco: 抽抽我 11/27 01:46
18Fwwwsamyoui12: 選我選我 11/27 01:48
19Fkeyu1202: 抽 11/27 01:49
20Fqaz940233: 抽 11/27 01:49
21FOWOWCOOLA: 抽 11/27 01:50
22Fa062693069: 抽我謝謝 11/27 01:50
23Fmichael0330: 好11/27 01:51
24Fa27358942: 抽11/27 01:51
25Fdfuknee: 好11/27 01:52
26Fgininder: 抽11/27 01:53
27Froadblock: 抽11/27 01:53
28Fsquallplus: 抽我抽我11/27 01:55
29Fa23945026: 抽!11/27 01:58
30Fjustin13579: 抽11/27 01:59
31FFakko: 抽11/27 01:59
32FDiabolik: 抽我抽我11/27 02:00
33FKai877: 抽11/27 02:00
34Fjahmari007: 抽!11/27 02:03
35Fshinchu329: 抽11/27 02:03
36FHarrisonL: 抽11/27 02:03
37Fhwer7850: 抽11/27 02:03
38FJie0724: 好11/27 02:04
39Fsimple4: 抽 11/27 02:04
40Fa3221715: 抽 11/27 02:07
41FMIYAVIneko: 抽我 11/27 02:07
42Fjack211155: 抽 11/27 02:07
43Fvirusket: 抽 11/27 02:08
44FJamesyuu: 抽我 11/27 02:08
45FMews: 抽11/27 02:09
46Ftony09100920: 好11/27 02:10
47Flee0820: 抽11/27 02:11
48Fdragon8844: !?11/27 02:12
49Fskytiger: 抽11/27 02:12
50Fdragon8844: 抽我!11/27 02:14
51FKerem52412: 抽11/27 02:15
52Fhj0928968: 抽11/27 02:19
53Fwayne0815: 抽11/27 02:20
54Fular: 抽我11/27 02:20
55FWhiteMouse: 好 我11/27 02:24
56Fzerhbbo78: 好11/27 02:25
57Fjameskoy: 好11/27 02:25
58Fcikanyuohai: 抽11/27 02:25
59Fsecret0409: 一直推一直抽11/27 02:26
60FMihabe0415: 抽11/27 02:26
61Fchangtzhcun: 抽 11/27 02:27
62FSweetRice: 抽 11/27 02:27
63FWater0823: 那就抽我吧 11/27 02:27
64Fxd1997317: 抽我拜託 11/27 02:27
65Fqk31330: 抽 11/27 02:29
66Fzxc741852901: 抽 11/27 02:29
67Fxiangx: 抽 謝謝爸爸11/27 02:36
68Fz265314x: 抽抽11/27 02:37
69Fweilu0228: 抽我11/27 02:37
70FChenChiHao: 抽11/27 02:38
71Fw840922: 抽11/27 02:39
72Fwilson31507: 好11/27 02:40
73FPiyanMi: 抽11/27 02:40
74FNuey: 好 抽11/27 02:40
75Fqwer3620580: 抽我11/27 02:41
76FAscv1706: 好11/27 02:42
77Fa890324: 抽11/27 02:45
78Fkioku: 抽11/27 02:46
79Fstillmark: 抽抽11/27 02:49
80FLKaoChan: 抽 一定抽11/27 02:50
81Fcoga4712: 抽11/27 02:57
82FMSyue: 抽11/27 03:02
83Fjimmy30637: 好 抽 11/27 03:03
84Fyys954789: 抽 11/27 03:04
85Flavender13: 抽 11/27 03:06
86Faaggll: 抽 11/27 03:08
87Fjouluhappy: 抽 11/27 03:16
88Fliao1202: 抽 11/27 03:17
89Fsam50540933: 抽11/27 03:21
90FUzInSec: 抽抽樂11/27 03:22
91Fjokerpok: 抽11/27 03:25
92Fkshsescaper: 抽11/27 03:26
93Fvincent8914: 抽11/27 03:26
94Fkmes504007: 抽11/27 03:28
95Fcains70: 我我我11/27 03:32
96Flategod: 抽抽11/27 03:32
97Fleo9707: 謝謝11/27 03:33
98FRyanXs: 抽抽抽11/27 03:33
99Floni: 抽11/27 03:37
100Ftsueiwoei: 排抽一個,有排有機會11/27 03:37
101Fhanklin5169: 抽11/27 03:42
102Fa23718408: 抽11/27 03:43
103Fcnn2510: 抽抽11/27 03:44
104Fpeter6097: 抽11/27 03:48
105Fbzra20168: 抽 11/27 03:50
106Fjoe22691128: 抽 11/27 03:51
107Fjackxdslamme: 抽 11/27 03:53
108Fprincejack: 抽 11/27 03:54
109Fzhtw: 怎麼還會沒人領XD 11/27 03:55
110Fyitingted: 抽 11/27 03:56
111Fluckyadidas: 抽11/27 03:56
112Fnike7014: 抽11/27 04:01
113Fcamelulo: 抽11/27 04:04
114Ffedrdy2308: 抽11/27 04:09
115Fa0561349: 抽11/27 04:13
116Fhotdogver: 抽11/27 04:21
117Fsaxz102x: 抽11/27 04:23
118FRHongQQ: 抽11/27 04:25
119Fsaltyfissssh: 抽11/27 04:26
120Foxxoooo: 抽11/27 04:27
121Fsteven4882: me11/27 04:36
122Fjefflien8: 抽11/27 04:40
123Fklyee: 抽11/27 04:59
124Fleonmarsman: 恭喜發財11/27 04:59
125FAngelChoi: 抽11/27 05:22
126Fwangggg55: 抽11/27 05:23
127FLiberius: 抽 11/27 05:24
128FAhoyRutile: 抽 11/27 05:32
129Fjellyeast: 抽 11/27 05:39
130Fqwer910888: 抽抽 11/27 05:44
131Frumenxie: 抽 11/27 05:54
132Fseekwww: 抽 11/27 05:54
133Fthb96300: 抽11/27 06:02
134Fpudidoo87: 抽11/27 06:08
135Fzeroalan86: 好11/27 06:09
136Fbonniekiss2: 抽抽抽11/27 06:23
137Fy35246357468: 抽我11/27 06:26
138FGaryFeng: 抽11/27 06:41
139FPEEEye: 抽11/27 06:51
140Fhector930501: 抽11/27 06:57
141FLeris0112: 抽11/27 07:03
142Flovecatcher: 抽11/27 07:05
143FRikkaSuki: 抽11/27 07:34
144Fjerrykuo0518: 到底要幾篇11/27 07:40
145Fa52060207: 抽11/27 07:43
146Fprwsme: 抽11/27 07:48
147Fa620100: 抽11/27 07:49
148Fhanyu1012: 抽11/27 07:50
149Farriraai5213: 抽 11/27 07:57
150Fqazwsx5618: 耶 11/27 08:03
151FDXDZ: 好 抽 11/27 08:03
152Fzxc7115: 抽 11/27 08:04
153Fyork159: 抽 11/27 08:06
154Fjackjack674: 抽 11/27 08:11
155Fbill870628: 抽11/27 08:17
156FRikky25800: 抽抽11/27 08:19
157Fchangriku: 好11/27 08:27
158FMuku2357: 抽11/27 08:29
159Fzxc84760: 佛11/27 08:29
160Fjake6669: 抽11/27 08:29
161FParahydrogen: 抽11/27 08:33
162Floveyoontae: 抽11/27 08:36
163Fhoward91707: 抽11/27 08:41
164FKuma1225: 抽11/27 08:44
165Fb6803583: 抽11/27 08:44
166Fzxchunterzxc: 抽11/27 08:50
167Fkevin9032: 抽11/27 08:51
168Fcscin218: 抽11/27 08:54
169FZoeyDestiny: 抽11/27 08:54
170Finer34asdi: 抽11/27 08:55
171Fcmaxmax01: 抽! 11/27 08:57
172Fmintea30: 抽抽 11/27 08:59
173Flyenia: 抽 11/27 09:01
174Fbarry111508: 抽 11/27 09:03
175Fsinon90509: 抽個抽個 11/27 09:08
176Fwang0308: 抽 11/27 09:17
177Flionsogoodpt: 抽11/27 09:18
178Faaronshell: U11/27 09:19
179Fsxcdew: 抽11/27 09:20
180Fwshevssam: 抽我寶貝11/27 09:24
181Fraybabypig: 抽11/27 09:28
182Fcshs991274: 抽11/27 09:29
183Fjames31701: 抽我 拜託11/27 09:31
184Ffutang: 抽11/27 09:35
185Fdong850811: 抽11/27 09:35
186Fa25155199: 抽11/27 09:38
187FRex34980762: 抽11/27 09:45
188Fwayne5992: 抽11/27 09:45
189Fsake0803: 抽11/27 09:46
190Fpyacc118: 抽11/27 09:52
191Flongkiss0618: 抽11/27 09:53
192Faoe7250350: 抽11/27 10:03
193Fwewe00411: 抽 11/27 10:05
194Ftako24145: 抽 11/27 10:06
195Fsan41010: 抽我謝謝 11/27 10:08
196Fjohnteddy: 抽 謝謝 11/27 10:12
197Fcody0204: 抽 11/27 10:18
198Fmay791225: 抽 11/27 10:20
199Fs29961091: 抽11/27 10:24
200Fbenson0411: 抽11/27 10:26
201Fwade4102: 抽11/27 10:29
202Fshynii00: 抽11/27 10:34
203Fzozoper: 抽11/27 10:34
204Fmarkcool01: 抽11/27 10:36
205Fheimerich: 抽 謝謝11/27 10:39
206FkrakenW: 好 希望抽到我11/27 10:40
207Ffriesman1270: 好11/27 10:45
208Fs8900309: 抽11/27 10:51
209Fkobe61501: 抽11/27 10:53
210Flex1113: 抽11/27 11:05
211Fching22: 抽11/27 11:06
212FNSyndergaard: 抽我11/27 11:09
213FBenson765421: 好11/27 11:09
214Fb8562099: 好11/27 11:18
215Fqwe09006: 推 佛心 11/27 11:20
216Fetalon87: 抽 11/27 11:23
217FXanthous0219: 抽 11/27 11:25
218Fgccbn03184: 抽 11/27 11:53
219Fedd1992: 抽 11/27 12:05
220FNoirSense: 抽 11/27 12:05
221FSHGF: 抽11/27 12:07
222Ffeyhs: 好人一生平安11/27 12:07
223Fleprintemp: 抽11/27 12:15
224Froadking: 抽11/27 12:17
225Fnazinazi: 抽11/27 12:28
226Fbrian9b3b: 抽11/27 12:29
227Fgtr0107: 抽11/27 12:46
228FNexusI: ╰(⊙Д⊙)╮佛心鄉民╭(⊙Д⊙)╯佛心鄉民11/27 12:51
229Fpaperhao: 抽11/27 12:54
230Fhwaygodu: 抽11/27 12:55
231Fjuzowa: 抽11/27 12:59
232Fwave99: 抽11/27 13:00
233Fr3817350: 抽11/27 13:01
234FSotong84: 抽11/27 13:08
235Fmasterdes: 抽11/27 13:16
236Fkevintseng9: 抽11/27 13:18
237Fnatopot: 抽 11/27 13:24
238FHotchkiss195: 抽 11/27 13:35
239FMrSG: 抽起來讚讚讚 11/27 13:46
240FYEHjH: 抽喔! 11/27 13:46
241Fhaviixddos: 抽 11/27 13:48
242Fjordan1109: 抽抽抽 11/27 13:52
243Ftofuco: 抽11/27 14:02
244Feric9521: 抽起來11/27 14:02
245Fshields04454: 抽11/27 14:13
246Flamalimpo: 好11/27 14:15
247Fakvo666: 抽11/27 14:20
248FXCCGIRI: 抽11/27 14:23
249Fphillp0804: 抽抽11/27 14:54
250Flock870501: 抽11/27 14:59
251Fkingofbubu: 抽抽11/27 15:02
252Flove691125: 抽11/27 15:13
253Fas1l3578654: 抽11/27 15:17
254Fslien: 抽11/27 15:24
255Fases1996: 抽11/27 15:27
256Fls61412: 抽11/27 16:24
257Fjerrydbk: 抽11/27 17:06
258Fblue0201: 抽11/27 17:10
259Fyuichi2521: 抽 11/27 17:40
260Fdaniel50508: 好 11/27 17:45
261FAekrooooo: 抽我拜託嗚嗚嗚 11/27 18:00
262Fpuppyguo: 抽 11/27 18:30
263Fpearnidca: 卡 11/27 18:39
264Fjohn1263: 抽 11/27 18:52
265Ffishcircle: 我11/27 19:18
266Fpiyieen: 抽11/27 19:20
267Fjoe77560123: 抽啊11/27 19:59
268FJun1025: 抽11/27 20:03
抱歉了大家 dragon8844已經回我站內信了 謝謝大家Q_Q 我已經沒序號了…… ※ 編輯: vanillaoasis (42.77.95.81 臺灣), 11/27/2022 20:18:55
269Fd0922030: 好 11/27 20:53
270Fg17zggi1: 抽 11/27 21:03
271Fdragon8844: 感謝大老 讚嘆大佬 11/27 21:04
272Fdenufu: 抽 謝謝 11/27 21:53
273Fyangbob1203: 好 抽我 謝謝爸爸 11/27 22:12
274FHoutarou: 抽 11/28 03:04
275Fthejackys: 好 11/28 06:03
276Fikaroskasane: 抽 11/28 20:32

lol熱門文章

-29 [閒聊] 越看越覺得T1好可憐= =
44 2023-01-28 14:19
54 [閒聊] Drx是史上最弱冠軍隊嗎
113 2023-01-28 11:45
56 [閒聊] 韓華粉現在在想啥?
107 2023-01-27 20:54
19 [閒聊] 有沒有跑速燼的八卦?
31 2023-01-27 20:14
-16 [閒聊] BeryL是否過譽了
86 2023-01-27 18:25
63 [閒聊] 寶藏幣選哪個造型好咧
108 2023-01-27 11:20
16 [閒聊] 所以原廠目前幾分
165 2023-01-27 09:47
62 [戰棋] 心中最棒的五費卡
75 2023-01-26 23:08
25 [實況] 小呆瓜
30 2023-01-26 22:21
8 [閒聊] 鋼鐵人也太爛了吧
37 2023-01-26 14:07